QPF
0.10 0.14 0.16 0.21 0.23 0.23 0.25 0.28 0.26 0.21 0.20 0.11 0.05 0.01 0.00 0.00 0.00 0.01 0.01 0.01 0.02 0.04 0.03 0.01 0.01 0.01 0.02 0.03 0.02 0.02 0.03 0.05 0.08 0.09 0.06 0.04 0.03 0.03 0.02 0.01 0.00 0.00 0.00
0.06 0.11 0.15 0.18 0.20 0.23 0.28 0.27 0.27 0.29 0.25 0.16 0.08 0.02 0.00 0.00 0.00 0.01 0.00 0.01 0.01 0.02 0.03 0.02 0.01 0.01 0.01 0.02 0.03 0.03 0.03 0.04 0.05 0.06 0.05 0.04 0.03 0.02 0.01 0.01 0.00 0.00 0.00
0.06 0.09 0.11 0.12 0.15 0.17 0.21 0.24 0.23 0.26 0.24 0.17 0.11 0.05 0.02 0.01 0.00 0.00 0.00 0.01 0.01 0.00 0.01 0.01 0.01 0.01 0.01 0.02 0.04 0.04 0.04 0.03 0.03 0.04 0.04 0.03 0.03 0.03 0.01 0.01 0.00 0.00 0.00
0.04 0.05 0.06 0.07 0.11 0.13 0.13 0.15 0.19 0.23 0.23 0.19 0.13 0.10 0.07 0.04 0.01 0.00 0.00 0.00 0.01 0.01 0.01 0.00 0.01 0.01 0.01 0.01 0.03 0.05 0.05 0.03 0.03 0.02 0.03 0.03 0.03 0.03 0.02 0.01 0.00 0.00 0.00
0.02 0.03 0.05 0.07 0.08 0.10 0.13 0.13 0.15 0.18 0.24 0.22 0.17 0.12 0.09 0.06 0.03 0.01 0.00 0.00 0.00 0.01 0.02 0.02 0.00 0.00 0.00 0.01 0.02 0.04 0.05 0.04 0.03 0.02 0.02 0.03 0.03 0.02 0.02 0.01 0.01 0.00 0.00
0.01 0.02 0.03 0.03 0.05 0.06 0.10 0.16 0.21 0.23 0.22 0.23 0.23 0.15 0.09 0.07 0.04 0.02 0.01 0.01 0.00 0.00 0.01 0.01 0.01 0.00 0.00 0.00 0.01 0.02 0.05 0.05 0.04 0.05 0.04 0.02 0.02 0.02 0.02 0.02 0.01 0.01 0.00
0.02 0.02 0.02 0.03 0.04 0.05 0.06 0.08 0.13 0.20 0.22 0.21 0.21 0.18 0.14 0.09 0.05 0.03 0.02 0.02 0.01 0.01 0.01 0.01 0.01 0.00 0.00 0.00 0.00 0.01 0.02 0.04 0.05 0.05 0.05 0.04 0.03 0.02 0.03 0.02 0.02 0.01 0.01
0.01 0.01 0.02 0.03 0.04 0.04 0.05 0.06 0.08 0.13 0.18 0.23 0.23 0.25 0.23 0.18 0.10 0.05 0.03 0.03 0.02 0.02 0.02 0.01 0.00 0.00 0.00 0.00 0.00 0.00 0.01 0.02 0.05 0.06 0.07 0.06 0.06 0.04 0.03 0.02 0.02 0.02 0.01
0.02 0.02 0.02 0.03 0.03 0.03 0.04 0.05 0.06 0.10 0.13 0.15 0.21 0.27 0.24 0.20 0.16 0.10 0.06 0.04 0.05 0.06 0.04 0.02 0.00 0.00 0.00 0.00 0.01 0.00 0.00 0.01 0.02 0.05 0.06 0.08 0.07 0.05 0.03 0.02 0.02 0.02 0.01
0.01 0.02 0.02 0.02 0.02 0.02 0.03 0.04 0.04 0.07 0.11 0.14 0.16 0.16 0.18 0.19 0.21 0.18 0.11 0.06 0.06 0.07 0.07 0.04 0.02 0.01 0.00 0.00 0.01 0.00 0.00 0.00 0.01 0.03 0.06 0.07 0.06 0.04 0.04 0.03 0.02 0.02 0.01
0.02 0.02 0.02 0.01 0.01 0.02 0.02 0.02 0.03 0.05 0.08 0.13 0.15 0.14 0.13 0.14 0.16 0.17 0.17 0.13 0.08 0.06 0.06 0.06 0.06 0.04 0.02 0.01 0.01 0.00 0.00 0.00 0.00 0.02 0.05 0.08 0.08 0.07 0.05 0.03 0.02 0.01 0.01
0.02 0.01 0.01 0.01 0.01 0.02 0.02 0.02 0.03 0.04 0.06 0.09 0.13 0.14 0.12 0.10 0.10 0.13 0.14 0.14 0.13 0.10 0.07 0.05 0.07 0.07 0.05 0.03 0.02 0.02 0.00 0.00 0.00 0.01 0.03 0.06 0.09 0.09 0.07 0.04 0.03 0.02 0.01
0.01 0.01 0.01 0.01 0.01 0.01 0.01 0.02 0.03 0.03 0.05 0.07 0.09 0.11 0.13 0.13 0.13 0.14 0.16 0.17 0.17 0.12 0.08 0.06 0.05 0.06 0.07 0.05 0.04 0.04 0.02 0.01 0.00 0.00 0.01 0.02 0.05 0.08 0.08 0.06 0.05 0.03 0.02
0.01 0.01 0.01 0.01 0.01 0.01 0.01 0.02 0.02 0.03 0.05 0.06 0.06 0.09 0.11 0.10 0.13 0.13 0.12 0.14 0.16 0.16 0.12 0.07 0.05 0.04 0.05 0.06 0.07 0.08 0.03 0.02 0.01 0.01 0.02 0.02 0.02 0.04 0.06 0.06 0.06 0.04 0.04
0.00 0.00 0.01 0.01 0.00 0.01 0.01 0.01 0.02 0.03 0.04 0.06 0.07 0.08 0.10 0.11 0.13 0.15 0.15 0.14 0.14 0.14 0.13 0.09 0.06 0.04 0.04 0.05 0.10 0.07 0.04 0.04 0.03 0.02 0.03 0.03 0.02 0.02 0.03 0.04 0.03 0.03 0.04
0.00 0.00 0.00 0.00 0.01 0.01 0.01 0.01 0.02 0.03 0.04 0.06 0.06 0.07 0.08 0.10 0.12 0.13 0.16 0.16 0.14 0.13 0.13 0.11 0.10 0.08 0.06 0.05 0.08 0.07 0.05 0.08 0.06 0.04 0.04 0.05 0.04 0.03 0.02 0.02 0.01 0.01 0.01
0.00 0.00 0.00 0.00 0.00 0.01 0.01 0.01 0.02 0.02 0.04 0.06 0.06 0.05 0.06 0.08 0.09 0.10 0.12 0.15 0.15 0.14 0.11 0.11 0.10 0.09 0.08 0.07 0.06 0.06 0.08 0.08 0.07 0.07 0.05 0.05 0.04 0.03 0.02 0.02 0.01 0.01 0.00
0.00 0.00 0.00 0.00 0.00 0.00 0.00 0.01 0.01 0.02 0.04 0.05 0.06 0.06 0.07 0.09 0.10 0.11 0.11 0.12 0.13 0.14 0.14 0.13 0.12 0.11 0.09 0.08 0.09 0.09 0.09 0.08 0.08 0.11 0.10 0.07 0.06 0.04 0.03 0.01 0.01 0.01 0.01
0.00 0.00 0.00 0.00 0.00 0.00 0.00 0.00 0.01 0.02 0.03 0.05 0.06 0.07 0.07 0.08 0.10 0.12 0.12 0.13 0.13 0.13 0.14 0.13 0.13 0.14 0.14 0.14 0.15 0.14 0.14 0.15 0.13 0.15 0.17 0.15 0.11 0.08 0.05 0.03 0.03 0.02 0.01
0.00 0.00 0.00 0.00 0.00 0.00 0.00 0.00 0.01 0.02 0.02 0.04 0.05 0.06 0.07 0.07 0.07 0.09 0.11 0.13 0.14 0.16 0.15 0.13 0.13 0.15 0.17 0.19 0.23 0.24 0.22 0.21 0.24 0.20 0.21 0.21 0.20 0.16 0.10 0.07 0.04 0.02 0.01
0.00 0.00 0.00 0.00 0.00 0.00 0.00 0.01 0.01 0.01 0.02 0.02 0.03 0.04 0.06 0.06 0.07 0.08 0.09 0.12 0.14 0.15 0.17 0.17 0.16 0.18 0.21 0.25 0.26 0.28 0.30 0.29 0.29 0.29 0.27 0.24 0.21 0.18 0.15 0.11 0.08 0.04 0.02
0.00 0.00 0.00 0.00 0.00 0.00 0.00 0.01 0.02 0.02 0.02 0.01 0.02 0.03 0.04 0.06 0.06 0.07 0.10 0.11 0.11 0.14 0.19 0.20 0.19 0.20 0.22 0.26 0.30 0.33 0.35 0.37 0.38 0.32 0.28 0.28 0.24 0.20 0.15 0.11 0.09 0.06 0.03
0.00 0.00 0.00 0.00 0.00 0.00 0.00 0.01 0.01 0.02 0.02 0.01 0.02 0.03 0.03 0.03 0.05 0.07 0.09 0.12 0.10 0.09 0.14 0.21 0.20 0.18 0.22 0.27 0.35 0.38 0.36 0.32 0.33 0.32 0.28 0.32 0.28 0.23 0.17 0.12 0.09 0.07 0.05
0.00 0.00 0.00 0.00 0.00 0.00 0.00 0.00 0.01 0.02 0.02 0.02 0.02 0.03 0.04 0.05 0.03 0.04 0.06 0.08 0.09 0.08 0.08 0.13 0.18 0.21 0.22 0.25 0.37 0.48 0.46 0.39 0.40 0.43 0.39 0.38 0.32 0.24 0.18 0.15 0.13 0.10 0.07
0.00 0.00 0.00 0.00 0.00 0.00 0.00 0.01 0.01 0.02 0.03 0.03 0.03 0.03 0.04 0.06 0.04 0.02 0.04 0.06 0.08 0.09 0.08 0.10 0.14 0.19 0.24 0.26 0.35 0.49 0.55 0.52 0.48 0.45 0.37 0.34 0.32 0.27 0.24 0.18 0.15 0.14 0.10
0.00 0.00 0.00 0.00 0.00 0.00 0.00 0.01 0.01 0.02 0.02 0.02 0.02 0.03 0.03 0.03 0.02 0.02 0.03 0.05 0.07 0.08 0.09 0.12 0.13 0.17 0.20 0.25 0.31 0.36 0.42 0.43 0.42 0.36 0.29 0.25 0.24 0.20 0.23 0.21 0.15 0.12 0.09
MSLP
1013.01 1012.98 1013.01 1013.12 1013.29 1013.51 1013.76 1014.02 1014.25 1014.43 1014.52 1014.53 1014.45 1014.34 1014.21 1014.11 1014.10 1014.19 1014.39 1014.70 1015.08 1015.48 1015.88 1016.24 1016.52 1016.71 1016.82 1016.86 1016.85 1016.82 1016.80 1016.80 1016.85 1016.95 1017.11 1017.32 1017.57 1017.84 1018.11 1018.35 1018.55 1018.70 1018.80
1012.70 1012.65 1012.67 1012.78 1012.95 1013.19 1013.46 1013.76 1014.05 1014.29 1014.46 1014.54 1014.53 1014.46 1014.34 1014.22 1014.14 1014.14 1014.24 1014.44 1014.72 1015.07 1015.45 1015.83 1016.17 1016.45 1016.66 1016.80 1016.88 1016.93 1016.96 1016.99 1017.05 1017.15 1017.31 1017.52 1017.76 1018.03 1018.30 1018.54 1018.73 1018.88 1018.99
1012.48 1012.41 1012.42 1012.51 1012.68 1012.92 1013.21 1013.53 1013.87 1014.17 1014.42 1014.58 1014.65 1014.63 1014.54 1014.40 1014.26 1014.16 1014.14 1014.20 1014.36 1014.61 1014.93 1015.29 1015.66 1016.01 1016.32 1016.57 1016.76 1016.90 1017.00 1017.09 1017.19 1017.31 1017.48 1017.68 1017.92 1018.17 1018.43 1018.66 1018.85 1019.00 1019.11
1012.37 1012.27 1012.26 1012.33 1012.47 1012.68 1012.97 1013.30 1013.66 1014.01 1014.32 1014.56 1014.71 1014.76 1014.70 1014.57 1014.39 1014.21 1014.07 1014.00 1014.02 1014.15 1014.38 1014.69 1015.06 1015.46 1015.84 1016.18 1016.48 1016.72 1016.92 1017.08 1017.23 1017.38 1017.56 1017.76 1017.99 1018.23 1018.47 1018.69 1018.88 1019.03 1019.14
1012.35 1012.23 1012.18 1012.20 1012.30 1012.48 1012.72 1013.03 1013.38 1013.75 1014.10 1014.40 1014.63 1014.75 1014.76 1014.66 1014.47 1014.25 1014.02 1013.84 1013.74 1013.75 1013.88 1014.12 1014.46 1014.86 1015.29 1015.70 1016.08 1016.42 1016.70 1016.94 1017.15 1017.35 1017.55 1017.76 1017.98 1018.21 1018.43 1018.64 1018.82 1018.97 1019.09
1012.41 1012.26 1012.17 1012.14 1012.18 1012.28 1012.46 1012.70 1013.01 1013.36 1013.72 1014.07 1014.35 1014.55 1014.63 1014.60 1014.46 1014.23 1013.97 1013.73 1013.54 1013.45 1013.48 1013.65 1013.93 1014.31 1014.74 1015.19 1015.63 1016.04 1016.39 1016.70 1016.97 1017.21 1017.44 1017.66 1017.88 1018.10 1018.31 1018.51 1018.69 1018.84 1018.98
1012.56 1012.36 1012.23 1012.14 1012.10 1012.12 1012.20 1012.35 1012.57 1012.87 1013.21 1013.56 1013.89 1014.16 1014.33 1014.39 1014.32 1014.15 1013.91 1013.65 1013.42 1013.26 1013.22 1013.30 1013.51 1013.84 1014.25 1014.70 1015.16 1015.61 1016.02 1016.38 1016.70 1016.99 1017.24 1017.48 1017.71 1017.93 1018.14 1018.34 1018.52 1018.68 1018.83
1012.75 1012.53 1012.34 1012.19 1012.08 1012.00 1011.98 1012.02 1012.14 1012.35 1012.63 1012.96 1013.31 1013.63 1013.88 1014.04 1014.08 1013.99 1013.82 1013.59 1013.36 1013.17 1013.07 1013.08 1013.22 1013.48 1013.83 1014.26 1014.71 1015.17 1015.61 1016.02 1016.38 1016.70 1017.00 1017.26 1017.50 1017.73 1017.94 1018.14 1018.33 1018.51 1018.67
1012.99 1012.73 1012.51 1012.31 1012.13 1011.97 1011.84 1011.77 1011.77 1011.87 1012.07 1012.35 1012.68 1013.03 1013.35 1013.59 1013.73 1013.75 1013.66 1013.50 1013.30 1013.11 1012.97 1012.93 1013.00 1013.19 1013.48 1013.86 1014.29 1014.74 1015.19 1015.62 1016.02 1016.38 1016.70 1017.00 1017.26 1017.51 1017.74 1017.95 1018.15 1018.34 1018.53
1013.24 1012.97 1012.73 1012.49 1012.27 1012.04 1011.82 1011.65 1011.54 1011.52 1011.62 1011.82 1012.10 1012.44 1012.79 1013.09 1013.31 1013.42 1013.43 1013.34 1013.19 1013.01 1012.87 1012.79 1012.80 1012.93 1013.16 1013.48 1013.87 1014.30 1014.75 1015.20 1015.62 1016.01 1016.38 1016.70 1017.00 1017.27 1017.52 1017.76 1017.97 1018.18 1018.39
1013.49 1013.21 1012.96 1012.72 1012.46 1012.19 1011.92 1011.66 1011.45 1011.32 1011.31 1011.41 1011.62 1011.92 1012.24 1012.57 1012.84 1013.01 1013.09 1013.06 1012.96 1012.82 1012.68 1012.58 1012.56 1012.63 1012.81 1013.08 1013.44 1013.85 1014.29 1014.75 1015.19 1015.62 1016.01 1016.38 1016.71 1017.01 1017.28 1017.54 1017.78 1018.02 1018.25
1013.70 1013.43 1013.19 1012.95 1012.69 1012.40 1012.08 1011.76 1011.48 1011.25 1011.14 1011.13 1011.25 1011.46 1011.74 1012.04 1012.31 1012.52 1012.63 1012.65 1012.59 1012.48 1012.36 1012.26 1012.22 1012.27 1012.42 1012.66 1012.98 1013.38 1013.81 1014.28 1014.74 1015.19 1015.61 1016.01 1016.37 1016.70 1017.01 1017.29 1017.56 1017.82 1018.07
1013.86 1013.60 1013.37 1013.14 1012.89 1012.60 1012.27 1011.92 1011.57 1011.27 1011.05 1010.95 1010.96 1011.08 1011.28 1011.51 1011.75 1011.94 1012.06 1012.11 1012.08 1012.00 1011.91 1011.82 1011.79 1011.84 1011.97 1012.20 1012.51 1012.90 1013.33 1013.80 1014.27 1014.74 1015.19 1015.60 1015.99 1016.35 1016.68 1017.00 1017.29 1017.58 1017.86
1013.96 1013.71 1013.49 1013.28 1013.04 1012.75 1012.42 1012.04 1011.66 1011.30 1011.00 1010.80 1010.71 1010.72 1010.82 1010.98 1011.15 1011.30 1011.41 1011.46 1011.45 1011.41 1011.35 1011.30 1011.30 1011.36 1011.51 1011.74 1012.06 1012.44 1012.87 1013.34 1013.81 1014.28 1014.74 1015.18 1015.58 1015.96 1016.32 1016.66 1016.98 1017.30 1017.60
1014.01 1013.76 1013.55 1013.34 1013.10 1012.82 1012.48 1012.09 1011.68 1011.28 1010.93 1010.65 1010.47 1010.38 1010.38 1010.44 1010.54 1010.64 1010.71 1010.76 1010.77 1010.75 1010.74 1010.73 1010.78 1010.88 1011.06 1011.31 1011.64 1012.02 1012.45 1012.91 1013.38 1013.85 1014.30 1014.74 1015.16 1015.55 1015.93 1016.29 1016.64 1016.99 1017.33
1014.03 1013.78 1013.56 1013.34 1013.09 1012.80 1012.45 1012.06 1011.63 1011.20 1010.80 1010.46 1010.20 1010.03 1009.94 1009.92 1009.94 1009.98 1010.03 1010.07 1010.09 1010.11 1010.14 1010.19 1010.29 1010.44 1010.66 1010.94 1011.28 1011.66 1012.08 1012.53 1012.99 1013.44 1013.89 1014.32 1014.75 1015.15 1015.55 1015.94 1016.32 1016.69 1017.06
1014.06 1013.80 1013.55 1013.31 1013.04 1012.72 1012.36 1011.95 1011.52 1011.07 1010.64 1010.25 1009.94 1009.70 1009.54 1009.44 1009.40 1009.40 1009.41 1009.44 1009.48 1009.53 1009.60 1009.71 1009.86 1010.06 1010.31 1010.61 1010.96 1011.34 1011.76 1012.19 1012.62 1013.07 1013.50 1013.94 1014.36 1014.79 1015.20 1015.62 1016.03 1016.44 1016.84
1014.11 1013.83 1013.56 1013.28 1012.98 1012.64 1012.26 1011.84 1011.38 1010.92 1010.48 1010.07 1009.71 1009.42 1009.21 1009.06 1008.96 1008.92 1008.91 1008.92 1008.97 1009.04 1009.15 1009.29 1009.48 1009.71 1009.98 1010.29 1010.64 1011.02 1011.42 1011.84 1012.26 1012.69 1013.13 1013.57 1014.02 1014.46 1014.91 1015.36 1015.81 1016.25 1016.68
1014.19 1013.89 1013.59 1013.28 1012.95 1012.59 1012.19 1011.75 1011.29 1010.82 1010.36 1009.94 1009.56 1009.24 1008.98 1008.79 1008.65 1008.57 1008.53 1008.53 1008.57 1008.65 1008.76 1008.92 1009.12 1009.36 1009.63 1009.94 1010.28 1010.64 1011.03 1011.43 1011.85 1012.29 1012.74 1013.21 1013.69 1014.18 1014.68 1015.17 1015.66 1016.14 1016.61
1014.28 1013.97 1013.66 1013.33 1012.97 1012.59 1012.18 1011.73 1011.27 1010.80 1010.34 1009.90 1009.51 1009.16 1008.87 1008.64 1008.47 1008.35 1008.28 1008.26 1008.27 1008.33 1008.43 1008.57 1008.75 1008.97 1009.22 1009.50 1009.82 1010.16 1010.53 1010.94 1011.37 1011.83 1012.32 1012.84 1013.38 1013.93 1014.48 1015.04 1015.58 1016.11 1016.61
1014.35 1014.05 1013.73 1013.39 1013.03 1012.64 1012.22 1011.78 1011.32 1010.85 1010.40 1009.96 1009.55 1009.19 1008.88 1008.62 1008.41 1008.25 1008.14 1008.08 1008.05 1008.07 1008.12 1008.22 1008.35 1008.52 1008.72 1008.96 1009.24 1009.56 1009.93 1010.34 1010.80 1011.31 1011.86 1012.45 1013.06 1013.69 1014.33 1014.95 1015.56 1016.13 1016.67
1014.37 1014.08 1013.77 1013.44 1013.09 1012.71 1012.30 1011.87 1011.42 1010.96 1010.51 1010.07 1009.66 1009.29 1008.96 1008.68 1008.44 1008.24 1008.09 1007.97 1007.89 1007.85 1007.84 1007.86 1007.92 1008.02 1008.16 1008.35 1008.59 1008.88 1009.25 1009.68 1010.18 1010.75 1011.38 1012.05 1012.76 1013.48 1014.20 1014.90 1015.57 1016.20 1016.77
1014.31 1014.04 1013.75 1013.44 1013.11 1012.75 1012.36 1011.95 1011.52 1011.07 1010.63 1010.20 1009.80 1009.42 1009.08 1008.77 1008.51 1008.28 1008.09 1007.92 1007.79 1007.68 1007.59 1007.53 1007.51 1007.53 1007.60 1007.72 1007.92 1008.20 1008.57 1009.03 1009.58 1010.21 1010.92 1011.69 1012.49 1013.31 1014.11 1014.89 1015.62 1016.29 1016.90
1014.13 1013.89 1013.63 1013.35 1013.05 1012.72 1012.36 1011.97 1011.56 1011.14 1010.71 1010.30 1009.90 1009.52 1009.18 1008.87 1008.59 1008.34 1008.12 1007.92 1007.73 1007.56 1007.40 1007.28 1007.18 1007.12 1007.13 1007.20 1007.37 1007.63 1008.00 1008.49 1009.09 1009.79 1010.57 1011.41 1012.30 1013.19 1014.07 1014.90 1015.68 1016.39 1017.04
1013.86 1013.65 1013.42 1013.18 1012.91 1012.61 1012.28 1011.92 1011.53 1011.13 1010.72 1010.32 1009.94 1009.57 1009.24 1008.93 1008.66 1008.40 1008.17 1007.94 1007.73 1007.52 1007.32 1007.14 1006.99 1006.88 1006.84 1006.88 1007.02 1007.27 1007.65 1008.16 1008.80 1009.54 1010.37 1011.28 1012.21 1013.15 1014.07 1014.94 1015.75 1016.48 1017.15
1013.51 1013.34 1013.14 1012.93 1012.70 1012.44 1012.14 1011.80 1011.44 1011.06 1010.67 1010.29 1009.92 1009.57 1009.25 1008.96 1008.69 1008.45 1008.22 1008.00 1007.78 1007.56 1007.34 1007.14 1006.97 1006.84 1006.78 1006.81 1006.94 1007.20 1007.59 1008.11 1008.76 1009.52 1010.38 1011.29 1012.24 1013.19 1014.11 1014.99 1015.80 1016.54 1017.20
Thickness
5740 5742 5744 5744 5744 5745 5746 5748 5750 5753 5754 5757 5760 5762 5765 5764 5764 5763 5762 5758 5756 5755 5755 5755 5755 5754 5754 5754 5755 5755 5755 5755 5754 5754 5753 5752 5751 5749 5749 5748 5747 5747 5746
5734 5737 5740 5742 5743 5742 5743 5745 5747 5749 5749 5750 5754 5758 5761 5764 5762 5762 5762 5760 5757 5756 5756 5755 5755 5755 5754 5754 5754 5755 5755 5754 5754 5753 5752 5751 5749 5749 5747 5746 5746 5745 5744
5728 5731 5735 5738 5740 5741 5741 5742 5745 5745 5745 5745 5747 5752 5757 5760 5761 5762 5763 5762 5761 5758 5756 5756 5755 5755 5755 5754 5754 5754 5754 5754 5753 5752 5751 5750 5749 5747 5746 5745 5744 5743 5742
5722 5725 5728 5732 5735 5737 5738 5739 5740 5740 5741 5742 5742 5745 5749 5753 5756 5760 5762 5762 5762 5762 5758 5756 5755 5755 5754 5754 5754 5754 5753 5753 5753 5752 5751 5749 5748 5747 5745 5744 5743 5742 5741
5714 5718 5722 5725 5729 5731 5734 5736 5738 5738 5738 5738 5738 5740 5743 5746 5752 5755 5760 5762 5763 5761 5762 5757 5755 5754 5754 5754 5754 5753 5753 5752 5752 5751 5750 5749 5747 5746 5744 5743 5742 5741 5739
5705 5709 5713 5718 5722 5724 5727 5730 5732 5733 5734 5735 5735 5737 5739 5740 5744 5750 5755 5759 5762 5762 5761 5760 5756 5755 5753 5753 5752 5753 5752 5752 5751 5750 5749 5748 5746 5745 5743 5742 5741 5739 5738
5696 5701 5705 5710 5713 5716 5720 5725 5727 5727 5729 5731 5729 5728 5731 5734 5738 5742 5747 5753 5758 5760 5759 5759 5759 5758 5755 5752 5751 5751 5751 5751 5750 5750 5748 5747 5745 5744 5743 5741 5740 5738 5737
5688 5693 5697 5701 5705 5707 5712 5716 5719 5720 5723 5726 5725 5721 5719 5723 5729 5736 5740 5743 5751 5756 5757 5758 5759 5758 5758 5756 5753 5750 5750 5750 5749 5748 5747 5746 5745 5743 5742 5740 5739 5737 5736
5681 5684 5689 5694 5697 5701 5704 5708 5712 5713 5716 5720 5723 5720 5717 5718 5722 5727 5732 5737 5742 5748 5752 5756 5758 5758 5756 5755 5755 5750 5749 5748 5747 5747 5746 5745 5743 5742 5741 5739 5738 5736 5735
5674 5676 5681 5686 5690 5694 5697 5701 5707 5708 5710 5712 5716 5719 5721 5723 5718 5717 5722 5729 5734 5739 5744 5750 5753 5756 5756 5754 5752 5751 5748 5746 5745 5745 5744 5743 5742 5741 5739 5738 5736 5734 5733
5668 5670 5673 5678 5682 5686 5690 5694 5698 5701 5704 5706 5709 5712 5714 5715 5718 5716 5714 5719 5724 5731 5737 5741 5746 5749 5752 5752 5751 5749 5746 5744 5743 5742 5742 5741 5740 5739 5737 5736 5734 5732 5730
5664 5666 5668 5671 5675 5678 5682 5686 5690 5694 5697 5701 5703 5705 5708 5709 5712 5714 5714 5715 5717 5723 5728 5733 5737 5742 5745 5747 5747 5746 5743 5742 5740 5740 5739 5739 5738 5737 5735 5734 5732 5730 5728
5660 5661 5663 5666 5668 5671 5675 5679 5683 5687 5690 5693 5696 5700 5703 5707 5711 5712 5711 5711 5712 5716 5719 5725 5730 5734 5737 5739 5742 5741 5739 5738 5737 5737 5736 5736 5735 5734 5733 5731 5729 5727 5725
5656 5656 5658 5660 5663 5665 5669 5672 5676 5680 5684 5687 5690 5693 5696 5700 5703 5705 5707 5706 5705 5707 5712 5718 5723 5728 5731 5733 5736 5735 5735 5734 5734 5733 5733 5732 5732 5731 5730 5728 5726 5724 5722
5653 5654 5655 5657 5658 5660 5662 5665 5669 5672 5676 5679 5682 5685 5688 5693 5696 5699 5701 5702 5701 5700 5705 5712 5716 5722 5724 5726 5729 5729 5732 5731 5731 5730 5729 5729 5728 5727 5726 5725 5723 5721 5719
5651 5651 5653 5654 5655 5656 5658 5659 5661 5664 5667 5671 5673 5677 5680 5684 5688 5691 5693 5696 5699 5699 5701 5710 5712 5715 5717 5720 5722 5724 5727 5728 5727 5727 5726 5725 5725 5724 5722 5721 5719 5717 5715
5651 5650 5650 5650 5651 5651 5652 5653 5654 5656 5659 5663 5667 5669 5672 5675 5679 5682 5686 5688 5691 5693 5693 5701 5705 5708 5709 5712 5716 5718 5721 5721 5722 5722 5722 5721 5721 5720 5718 5716 5714 5712 5710
5650 5649 5647 5647 5647 5646 5646 5646 5646 5648 5650 5653 5657 5660 5663 5667 5669 5674 5677 5680 5684 5687 5688 5691 5695 5699 5702 5706 5709 5711 5714 5716 5718 5718 5717 5717 5716 5715 5713 5711 5709 5707 5705
5648 5647 5646 5644 5642 5641 5640 5640 5640 5640 5643 5645 5647 5651 5654 5657 5660 5664 5667 5672 5675 5680 5682 5684 5688 5691 5694 5698 5700 5703 5706 5709 5711 5713 5712 5711 5710 5709 5707 5705 5703 5701 5699
5647 5644 5642 5640 5638 5636 5634 5633 5633 5633 5635 5637 5639 5642 5645 5648 5651 5655 5659 5663 5667 5670 5673 5676 5679 5682 5686 5690 5693 5695 5697 5701 5704 5706 5706 5705 5704 5702 5701 5699 5697 5695 5692
5646 5642 5639 5637 5634 5631 5627 5623 5624 5626 5627 5628 5631 5634 5637 5638 5640 5644 5649 5653 5658 5662 5665 5668 5672 5675 5679 5681 5685 5691 5692 5694 5696 5699 5698 5698 5697 5695 5693 5691 5689 5687 5685
5645 5641 5637 5633 5629 5626 5618 5615 5613 5617 5619 5620 5622 5625 5629 5631 5633 5635 5639 5643 5647 5653 5659 5663 5667 5670 5674 5678 5681 5684 5686 5687 5687 5692 5691 5689 5690 5688 5687 5684 5682 5680 5678
5644 5639 5635 5631 5626 5622 5614 5610 5608 5609 5612 5612 5613 5616 5620 5624 5625 5631 5634 5637 5642 5645 5651 5658 5662 5667 5670 5675 5676 5678 5681 5683 5684 5687 5684 5681 5681 5680 5679 5677 5675 5672 5670
5644 5639 5634 5629 5624 5620 5611 5607 5604 5607 5608 5607 5608 5609 5612 5615 5619 5622 5627 5632 5637 5642 5647 5652 5658 5663 5666 5669 5672 5674 5676 5676 5675 5676 5677 5672 5671 5670 5669 5667 5665 5664 5661
5644 5641 5636 5629 5624 5620 5611 5605 5601 5604 5605 5604 5605 5606 5607 5610 5611 5615 5621 5627 5632 5637 5641 5645 5651 5655 5658 5661 5664 5665 5665 5666 5665 5665 5666 5665 5661 5659 5657 5656 5655 5654 5653
5645 5641 5637 5632 5626 5621 5612 5605 5600 5603 5602 5602 5603 5605 5604 5605 5607 5611 5618 5623 5626 5631 5637 5642 5646 5649 5652 5655 5657 5659 5661 5660 5658 5656 5657 5658 5654 5651 5646 5644 5646 5644 5642